Regional Weather Roundup
Issued by NWS Newport/Morehead, NC

Current Version | Previous Version | Text Only | Print | Product List | Glossary On
Versions: 1 2 3 4 5 6 7 8 9 10 11 12 13 14 15 16 17 18 19 20 21 22 23 24 25 26 27 28 29 30 31 32 33 34 35 36 37 38 39 40 41 42 43 44 45 46 47 48 49 50
000
ASUS42 KMHX 261510
RWRMHX
WEATHER ROUNDUP FOR EASTERN NORTH CAROLINA
NATIONAL WEATHER SERVICE NEWPORT/MOREHEAD CITY NC
1100 AM EDT SAT JUL 26 2014

NOTE: "FAIR" INDICATES FEW OR NO CLOUDS BELOW 12,000 FEET
WITH NO SIGNIFICANT WEATHER AND/OR OBSTRUCTIONS TO VISIBILITY

NCZ015>017-031-032-045>047-102-103-261600-
NORTH COAST

CITY           SKY/WX    TMP DP  RH WIND       PRES   REMARKS
EDENTON        SUNNY     81  67  62 SE5       30.03F
ELIZABETH CITY SUNNY     81  63  54 SE6       30.03F
KITTY HAWK     MOSUNNY   81  63  54 E5        30.03S
MANTEO         NOT AVBL

$$

NCZ045>047-081-094-103-104-261600-
CENTRAL COAST

CITY           SKY/WX    TMP DP  RH WIND       PRES   REMARKS
FRISCO         PTSUNNY   84  73  69 NE9       30.02F
SWANQUARTER      N/A     82 N/A N/A S5        30.00S

$$

NCZ095-097-098-100-101-261600-
SOUTHERN COAST

CITY           SKY/WX    TMP DP  RH WIND       PRES   REMARKS
BEAUFORT       PTSUNNY   84  74  71 CALM      30.02S
CEDAR ISLAND     N/A     81 N/A N/A E6G12     30.06S
JACKSONVILLE   MOSUNNY   84  74  71 NE3       30.03R
NEWPORT        NOT AVBL
PINEY ISLAND   PTSUNNY   82  76  81 E9        30.02S
WILMINGTON     MOSUNNY   85  74  69 CALM      30.03R


$$

NCZ011>013-027>030-043-044-078>080-089-090>093-098-261600-
COASTAL PLAIN

CITY           SKY/WX    TMP DP  RH WIND       PRES   REMARKS
AHOSKIE        SUNNY     81  69  68 SE3       30.03F
CLINTON        MOSUNNY   83  74  74 CALM      30.04R
ELIZABETHTOWN  CLOUDY    78  75  90 CALM      30.04R
GOLDSBORO      PTSUNNY   82  75  78 E5        30.02R
GREENVILLE     MOSUNNY   81  72  74 CALM      30.05S
HAVELOCK       PTSUNNY   83  72  69 NE3       30.04R
KENANSVILLE    SUNNY     82  71  68 CALM      30.05R
KINSTON        SUNNY     82  72  69 E3        30.04S
NEW BERN       MOSUNNY   85  72  65 CALM      30.04S
RICHLANDS      PTSUNNY   82  72  69 CALM      30.03S
ROANOKE RAPIDS NOT AVBL
ROCKY MOUNT    CLOUDY    80  72  76 CALM      30.04S
WASHINGTON     MOSUNNY   80  72  76 CALM      30.04R
WHITEVILLE     MOSUNNY   82  72  73 CALM      30.03R

$$

AMZ130-135-150-152-154-156-158-170-250-252-270-ANZ085-086-088-633-658-670-261600-
MARINE OBSERVATIONS

STATION/POSITION TIME  TEMP    WIND        PRES    WAVE   SWELL
                       AIR SEA DIR/SP/G            HT/PER HT/PER
                 (UTC) (F)     (DEG/KT/KT) (MB)    (FT/S) (FT/S)
CHESAPEAKE LIGHT NOT AVBL
BUOY 44014       1500   77 78  100/  4/  6 1016.8    2/ 7   2/ 7
DUCK             1500   79 77  110/  9/ 10 1016.3
2E DUCK          1500                        N/A     2/ 7
OREGON INLET     1500   78 78   60/  8/  9 1017.2
BUOY 44095       1500      77                N/A     2/ 7
20E OREGON INLET NOT AVBL
HATTERAS CG      1500   80 80   60/  8/ 11 1017.1
DIAMOND BUOY     1500          VRB  8/ 10  1016.6    2/ 7   2/ 7
CAPE LOOKOUT     1400   81      90/  4/  4 1016.5
BEAUFORT LAB     1500   83 81  360/  1/  3 1016.5
30 SE NEW RIVER  1500   81 82  220/  4/  6 1017.2    3/ 6   2/ 6
5 SE WRIGHTSVILL 1400   78 82  310/  2/  2   N/A
BUOY 41002       1426   82 82  240/ 14/ 16 1019.7    4/ 6   2/ 7
BUOY 41004       1500   83 82  270/ 12/ 14 1016.6    3/ 5   2/ 8

$$



USA.gov is the U.S. government's official web portal to all federal, state and local government web resources and services.